Goshen, IN

4:04 PM EDT on April 30, 2017 (GMT -0400)
Goshen Municipal

Weather History for KGSH - November, 2011

Change the Weather History Date:

Friday, November 18, 2011

  Actual Average Record
Temperature  
Mean Temperature 38 °F -  
Max Temperature 50 °F 49 °F 71 °F (2016)
Min Temperature 25 °F 33 °F 8 °F (1959)
Degree Days  
Heating Degree Days 28    
Moisture  
Dew Point 17 °F    
Average Humidity 44    
Maximum Humidity 69    
Minimum Humidity 25    
Precipitation  
Precipitation 0.00 in - - ()
Sea Level Pressure  
Sea Level Pressure 30.17 in    
Wind  
Wind Speed 12 mph (South)    
Max Wind Speed 26 mph    
Max Gust Speed 36 mph    
Visibility 10 miles    
Events      
Averages and records for this station are not official NWS values.
T = Trace of Precipitation, MM = Missing Value Source: NWS Daily Summary

Daily Weather History Graph

Daily Weather History Graph

Search for Another Location

Airport or City:

Trip Planner

Search our weather history database for the weather conditions in past years. The results will help you decide how hot, cold, wet, or windy it might be!

Date:

Astronomy

Nov. 18, 2011 Rise Set
Actual Time 7:35 AM EST 5:20 PM EST
Civil Twilight 7:05 AM EST 5:50 PM EST
Nautical Twilight 6:31 AM EST 6:24 PM EST
Astronomical Twilight 5:58 AM EST 6:57 PM EST
Moon No Moon Rise 1:12 PM EST (11/18)
Length of Visible Light 10h 45m
Length of Day
9h 45m
Waning Gibbous, 49% of the Moon is Illuminated
Nov 18
Waning Gibbous
Nov 25
New
Dec 2
First Quarter
Dec 10
Full
Dec 17
Last Quarter

Hourly Weather History & Observations

Time (EST) Temp. Windchill Dew Point Humidity Pressure Visibility Wind Dir Wind Speed Gust Speed Precip Events Conditions
12:53 AM 26.1 °F 19.4 °F 17.1 °F 69% 30.28 in 10.0 mi South 5.8 mph - N/A   Clear
1:53 AM 25.0 °F 19.3 °F 16.0 °F 69% 30.28 in 10.0 mi South 4.6 mph - N/A   Clear
2:53 AM 25.0 °F 18.1 °F 16.0 °F 69% 30.29 in 10.0 mi SSE 5.8 mph - N/A   Clear
3:53 AM 28.0 °F 20.0 °F 17.1 °F 63% 30.28 in 10.0 mi South 8.1 mph - N/A   Clear
4:53 AM 28.0 °F 18.6 °F 17.1 °F 63% 30.28 in 10.0 mi South 10.4 mph - N/A   Clear
5:53 AM 28.9 °F 19.2 °F 17.1 °F 61% 30.28 in 10.0 mi South 11.5 mph - N/A   Clear
6:53 AM 30.0 °F 20.5 °F 16.0 °F 56% 30.27 in 10.0 mi South 11.5 mph - N/A   Clear
7:53 AM 30.9 °F 21.2 °F 16.0 °F 54% 30.28 in 10.0 mi South 12.7 mph - N/A   Clear
8:53 AM 34.0 °F 24.2 °F 16.0 °F 48% 30.27 in 10.0 mi SSW 15.0 mph - N/A   Clear
9:53 AM 37.9 °F 28.2 °F 16.0 °F 41% 30.26 in 10.0 mi SSW 18.4 mph 25.3 mph N/A   Clear
10:53 AM 42.1 °F 32.3 °F 17.1 °F 37% 30.25 in 10.0 mi SSW 24.2 mph 31.1 mph N/A   Clear
11:53 AM 44.1 °F 35.0 °F 18.0 °F 35% 30.22 in 10.0 mi SSW 24.2 mph 35.7 mph N/A   Clear
12:53 PM 46.0 °F 38.0 °F 15.1 °F 29% 30.18 in 10.0 mi SSW 21.9 mph 28.8 mph N/A   Clear
1:53 PM 48.0 °F - 15.1 °F 27% 30.13 in 10.0 mi SSW 26.5 mph 33.4 mph N/A   Clear
2:53 PM 50.0 °F - 15.1 °F 25% 30.09 in 10.0 mi South 21.9 mph 31.1 mph N/A   Clear
3:53 PM 48.0 °F - 16.0 °F 28% 30.06 in 10.0 mi South 18.4 mph 25.3 mph N/A   Mostly Cloudy
4:53 PM 46.0 °F 38.8 °F 16.0 °F 30% 30.06 in 10.0 mi South 18.4 mph 26.5 mph N/A   Partly Cloudy
5:53 PM 44.1 °F 36.2 °F 18.0 °F 35% 30.04 in 10.0 mi South 18.4 mph 25.3 mph N/A   Partly Cloudy
7:53 PM 44.1 °F 35.7 °F 18.0 °F 35% 30.01 in 10.0 mi South 20.7 mph 31.1 mph N/A   Mostly Cloudy
8:53 PM 44.1 °F 36.5 °F 18.0 °F 35% 30.01 in 10.0 mi South 17.3 mph 31.1 mph N/A   Mostly Cloudy
9:53 PM 44.1 °F 36.8 °F 19.0 °F 37% 30.01 in 10.0 mi South 16.1 mph 25.3 mph N/A   Scattered Clouds
10:53 PM 44.1 °F 37.4 °F 19.0 °F 37% 30.02 in 10.0 mi SSW 13.8 mph - N/A   Overcast
11:53 PM 43.0 °F 38.2 °F 19.9 °F 40% 30.02 in 10.0 mi SSW 8.1 mph - N/A   Overcast